Hourly Weather Barsanovo

Today, 19 June, Saturday

Time Temperature Precipitation Wind Pressure Humidity
00:00 +18°C° 0 mm 2 mps 759 mmHg 87%
01:00 +17°C° 0 mm 2 mps 759 mmHg 90%
02:00 +17°C° 0 mm 2 mps 759 mmHg 92%
03:00 +17°C° 0 mm 2 mps 759 mmHg 91%
04:00 +17°C° 0 mm 2 mps 759 mmHg 89%
05:00 +19°C° 0 mm 1 mps 759 mmHg 88%
06:00 +20°C° 0 mm 2 mps 759 mmHg 79%
07:00 +23°C° 0 mm 2 mps 759 mmHg 71%
08:00 +25°C° 0 mm 2 mps 759 mmHg 62%
09:00 +26°C° 0 mm 2 mps 759 mmHg 56%
10:00 +28°C° 0 mm 3 mps 758 mmHg 50%
11:00 +29°C° 0 mm 3 mps 758 mmHg 44%
12:00 +30°C° 0 mm 3 mps 758 mmHg 42%
13:00 +30°C° 0 mm 3 mps 758 mmHg 40%
14:00 +31°C° 0 mm 3 mps 757 mmHg 37%
15:00 +31°C° 0 mm 3 mps 757 mmHg 40%
16:00 +30°C° 0 mm 3 mps 757 mmHg 42%
17:00 +30°C° 0 mm 3 mps 757 mmHg 44%
18:00 +28°C° 0 mm 2 mps 757 mmHg 54%
19:00 +26°C° 0 mm 2 mps 757 mmHg 64%
20:00 +24°C° 0 mm 2 mps 757 mmHg 74%
21:00 +23°C° 0 mm 2 mps 757 mmHg 77%
22:00 +21°C° 0 mm 2 mps 757 mmHg 81%
23:00 +19°C° 0 mm 2 mps 757 mmHg 84%

Tomorrow, 20 June, Sunday

Time Temperature Precipitation Wind Pressure Humidity
00:00 +19°C° 0 mm 2 mps 757 mmHg 88%
01:00 +18°C° 0 mm 2 mps 757 mmHg 91%
02:00 +18°C° 0 mm 2 mps 757 mmHg 94%
03:00 +18°C° 0 mm 2 mps 757 mmHg 93%
04:00 +18°C° 0 mm 2 mps 757 mmHg 92%
05:00 +19°C° 0 mm 2 mps 757 mmHg 91%
06:00 +21°C° 0 mm 2 mps 757 mmHg 82%
07:00 +24°C° 0 mm 2 mps 757 mmHg 73%
08:00 +26°C° 0 mm 3 mps 757 mmHg 65%
09:00 +28°C° 0 mm 3 mps 757 mmHg 59%
10:00 +29°C° 0 mm 3 mps 756 mmHg 54%
11:00 +30°C° 0 mm 3 mps 756 mmHg 48%
12:00 +31°C° 0 mm 3 mps 756 mmHg 47%
13:00 +31°C° 0 mm 3 mps 755 mmHg 45%
14:00 +33°C° 0 mm 3 mps 755 mmHg 44%
15:00 +31°C° 0 mm 2 mps 755 mmHg 50%
16:00 +30°C° 0 mm 2 mps 755 mmHg 56%
17:00 +29°C° 0 mm 1 mps 755 mmHg 62%
18:00 +28°C° 0 mm 1 mps 755 mmHg 67%
19:00 +27°C° 0 mm 1 mps 755 mmHg 72%
20:00 +26°C° 0 mm 1 mps 755 mmHg 77%
21:00 +25°C° 0 mm 1 mps 755 mmHg 81%
22:00 +23°C° 0 mm 1 mps 755 mmHg 85%
23:00 +21°C° 0 mm 2 mps 755 mmHg 89%

Day after tomorrow, 21 June, Monday

Time Temperature Precipitation Wind Pressure Humidity
00:00 +21°C° 0 mm 2 mps 755 mmHg 91%
01:00 +20°C° 0 mm 2 mps 755 mmHg 93%
02:00 +20°C° 0 mm 1 mps 755 mmHg 95%
03:00 +21°C° 0 mm 1 mps 755 mmHg 94%
04:00 +20°C° 0 mm 2 mps 755 mmHg 93%
05:00 +20°C° 0 mm 2 mps 755 mmHg 91%
06:00 +23°C° 0 mm 2 mps 755 mmHg 82%
07:00 +25°C° 0 mm 2 mps 755 mmHg 73%
08:00 +27°C° 0 mm 2 mps 755 mmHg 64%
09:00 +28°C° 0 mm 3 mps 755 mmHg 56%
10:00 +30°C° 0 mm 3 mps 755 mmHg 49%
11:00 +31°C° 0 mm 3 mps 755 mmHg 42%
12:00 +31°C° 0 mm 3 mps 754 mmHg 41%
13:00 +33°C° 0 mm 4 mps 754 mmHg 39%
14:00 +33°C° 0 mm 4 mps 754 mmHg 38%
15:00 +33°C° 0 mm 3 mps 754 mmHg 39%
16:00 +33°C° 0 mm 3 mps 754 mmHg 40%
17:00 +33°C° 0 mm 3 mps 753 mmHg 41%
18:00 +30°C° 0 mm 3 mps 753 mmHg 50%
19:00 +27°C° 0 mm 2 mps 753 mmHg 59%
20:00 +25°C° 0 mm 2 mps 753 mmHg 68%
21:00 +24°C° 0 mm 2 mps 753 mmHg 69%
22:00 +23°C° 0 mm 2 mps 753 mmHg 70%
23:00 +22°C° 0 mm 3 mps 753 mmHg 71%

22 June, Tuesday

Time Temperature Precipitation Wind Pressure Humidity
00:00 +21°C° 0 mm 2 mps 753 mmHg 77%
01:00 +20°C° 0 mm 2 mps 753 mmHg 83%
02:00 +20°C° 0 mm 2 mps 753 mmHg 88%
03:00 +20°C° 0 mm 2 mps 753 mmHg 89%
04:00 +20°C° 0 mm 2 mps 753 mmHg 89%
05:00 +21°C° 0 mm 2 mps 753 mmHg 89%
06:00 +24°C° 0 mm 3 mps 753 mmHg 81%
07:00 +25°C° 0 mm 3 mps 753 mmHg 73%
08:00 +27°C° 0 mm 4 mps 753 mmHg 65%
09:00 +29°C° 0 mm 4 mps 753 mmHg 59%
10:00 +30°C° 0 mm 4 mps 753 mmHg 53%
11:00 +32°C° 0 mm 5 mps 753 mmHg 47%
12:00 +32°C° 0 mm 4 mps 753 mmHg 49%
13:00 +32°C° 0 mm 4 mps 753 mmHg 50%
14:00 +32°C° 0 mm 4 mps 753 mmHg 52%
15:00 +32°C° 0 mm 4 mps 753 mmHg 55%
16:00 +30°C° 0 mm 3 mps 753 mmHg 59%
17:00 +29°C° 0 mm 3 mps 753 mmHg 63%
18:00 +28°C° 0 mm 3 mps 753 mmHg 69%
19:00 +27°C° 0 mm 2 mps 753 mmHg 76%
20:00 +26°C° 0 mm 1 mps 754 mmHg 82%
21:00 +25°C° 0.1 mm 1 mps 754 mmHg 85%
22:00 +24°C° 0.1 mm 2 mps 754 mmHg 87%
23:00 +23°C° 0.1 mm 2 mps 754 mmHg 90%

23 June, Wednesday

Time Temperature Precipitation Wind Pressure Humidity
00:00 +23°C° 0.1 mm 2 mps 754 mmHg 92%
01:00 +23°C° 0.1 mm 2 mps 754 mmHg 93%
02:00 +21°C° 0.1 mm 2 mps 755 mmHg 94%
03:00 +21°C° 0.1 mm 2 mps 755 mmHg 94%
04:00 +23°C° 0.1 mm 2 mps 755 mmHg 93%
05:00 +23°C° 0.1 mm 2 mps 755 mmHg 92%
06:00 +25°C° 0 mm 2 mps 755 mmHg 82%
07:00 +26°C° 0 mm 3 mps 755 mmHg 73%
08:00 +28°C° 0 mm 3 mps 755 mmHg 64%
09:00 +29°C° 0 mm 3 mps 755 mmHg 56%
10:00 +32°C° 0 mm 4 mps 755 mmHg 49%
11:00 +33°C° 0 mm 4 mps 756 mmHg 41%
12:00 +34°C° 0 mm 4 mps 755 mmHg 39%
13:00 +35°C° 0 mm 4 mps 755 mmHg 37%
14:00 +35°C° 0 mm 4 mps 755 mmHg 34%
15:00 +35°C° 0 mm 3 mps 755 mmHg 36%
16:00 +35°C° 0 mm 3 mps 755 mmHg 38%
17:00 +35°C° 0 mm 3 mps 755 mmHg 40%
18:00 +32°C° 0 mm 2 mps 755 mmHg 50%
19:00 +30°C° 0 mm 2 mps 755 mmHg 60%
20:00 +28°C° 0 mm 1 mps 755 mmHg 70%
21:00 +27°C° 0 mm 1 mps 755 mmHg 73%
22:00 +26°C° 0 mm 2 mps 755 mmHg 76%
23:00 +25°C° 0 mm 2 mps 755 mmHg 79%

24 June, Thursday

Time Temperature Precipitation Wind Pressure Humidity
00:00 +24°C° 0 mm 2 mps 755 mmHg 83%
01:00 +24°C° 0 mm 2 mps 755 mmHg 86%
02:00 +23°C° 0 mm 2 mps 756 mmHg 90%
03:00 +23°C° 0 mm 2 mps 756 mmHg 90%
04:00 +24°C° 0 mm 2 mps 756 mmHg 89%
05:00 +24°C° 0 mm 2 mps 756 mmHg 89%
06:00 +26°C° 0 mm 2 mps 756 mmHg 80%
07:00 +27°C° 0 mm 2 mps 756 mmHg 71%
08:00 +29°C° 0 mm 3 mps 756 mmHg 62%
09:00 +31°C° 0 mm 3 mps 756 mmHg 54%
10:00 +33°C° 0 mm 3 mps 756 mmHg 46%
11:00 +35°C° 0 mm 4 mps 756 mmHg 37%
12:00 +35°C° 0 mm 4 mps 755 mmHg 35%
13:00 +36°C° 0 mm 4 mps 755 mmHg 32%
14:00 +37°C° 0 mm 5 mps 755 mmHg 30%
15:00 +36°C° 0 mm 4 mps 755 mmHg 33%
16:00 +36°C° 0 mm 4 mps 755 mmHg 35%
17:00 +35°C° 0 mm 4 mps 755 mmHg 38%
18:00 +33°C° 0 mm 3 mps 754 mmHg 49%
19:00 +30°C° 0 mm 3 mps 754 mmHg 59%
20:00 +28°C° 0 mm 2 mps 754 mmHg 70%
21:00 +26°C° 0.2 mm 2 mps 754 mmHg 76%
22:00 +25°C° 0.2 mm 2 mps 755 mmHg 82%
23:00 +24°C° 0.2 mm 2 mps 755 mmHg 88%
Show more